EW7149 Weather Reports


Display with metric or nautical units.
time (UTC)temp
F
wind
direction
speed
MPH
gust
MPH
rain 1hr
in
rain 24hr
in
rain mn
in
humidity
%
barometer
mb
20260902155024 85 158 0.0 0.0 0.00 0.00 0.00 1 1017.9
20260902154516 85 158 0.0 0.0 0.00 0.00 0.00 1 1017.6
20260902154016 85 158 0.0 0.0 0.00 0.00 0.00 2 1017.7
20260902153500 85 158 0.0 0.0 0.00 0.00 0.00 3 1017.6
20260902152943 85 154 0.0 0.0 0.00 0.00 0.00 1 1017.6
20260902152434 85 142 0.0 0.0 0.00 0.00 0.00 4 1017.7
20260902151919 85 144 0.0 0.0 0.00 0.00 0.00 7 1017.6
20260902150859 84 154 0.0 0.0 0.00 0.00 0.00 1 1017.6
20260902150408 84 150 0.0 0.0 0.00 0.00 0.00 1 1017.6
20260902145337 84 134 0.0 0.0 0.00 0.00 0.00 1 1017.6
20260902144832 84 134 0.0 0.0 0.00 0.00 0.00 1 1017.6
20260902144335 83 154 0.0 0.0 0.00 0.00 0.00 1 1017.6
20260902143334 82 157 0.0 0.0 0.00 0.00 0.00 1 1017.6
20260902142829 82 111 0.0 0.0 0.00 0.00 0.00 1 1017.8
20260902142315 81 111 0.0 0.0 0.00 0.00 0.00 1 1017.8
20260902141822 80 111 0.0 0.0 0.00 0.00 0.00 1 1017.8
20260902141310 79 82 0.0 0.0 0.00 0.00 0.00 1 1017.8
20260902140815 79 82 0.0 0.0 0.00 0.00 0.00 1 1017.8
20260902140309 78 82 0.0 0.0 0.00 0.00 0.00 1 1017.8
20260902135751 78 84 0.0 0.0 0.00 0.00 0.00 1 1017.8
20260902135241 77 80 0.0 0.0 0.00 0.00 0.00 1 1017.8
20260902133752 77 86 0.0 0.0 0.00 0.00 0.00 1 1017.6
20260902133237 76 86 0.0 0.0 0.00 0.00 0.00 1 1017.5
20260902132747 76 148 0.0 0.0 0.00 0.00 0.00 1 1017.4
20260902132231 76 146 0.0 0.0 0.00 0.00 0.00 1 1017.5
20260902131734 76 143 0.0 3.0 0.00 0.00 0.00 1 1017.4
20260902131240 76 195 0.0 0.0 0.00 0.00 0.00 1 1017.4
20260902130732 75 199 0.0 0.0 0.00 0.00 0.00 1 1017.3
20260902130231 75 199 0.0 0.0 0.00 0.00 0.00 1 1017.4
20260902125721 75 224 0.0 0.0 0.00 0.00 0.00 1 1017.3
20260902125206 74 224 0.0 0.0 0.00 0.00 0.00 1 1017.1
20260902124711 74 224 0.0 0.0 0.00 0.00 0.00 1 1017.1
20260902123706 74 224 0.0 0.0 0.00 0.00 0.00 1 1017.1
20260902122701 74 224 0.0 0.0 0.00 0.00 0.00 1 1017.1
20260902122150 73 255 0.0 0.0 0.00 0.00 0.00 1 1017.2
20260902121636 73 255 0.0 0.0 0.00 0.00 0.00 1 1017.1
20260902121143 73 255 0.0 0.0 0.00 0.00 0.00 1 1017.0
20260902120625 73 255 0.0 0.0 0.00 0.00 0.00 1 1016.9
20260902120130 73 256 0.0 0.0 0.00 0.00 0.00 1 1016.9
20260902115114 72 284 0.0 0.0 0.00 0.00 0.00 1 1016.8
20260902114618 72 284 0.0 0.0 0.00 0.00 0.00 1 1016.8
20260902114120 72 284 0.0 0.0 0.00 0.00 0.00 1 1016.9
20260902113601 72 284 0.0 0.0 0.00 0.00 0.00 1 1017.0
20260902112552 71 284 0.0 0.0 0.00 0.00 0.00 1 1016.9
20260902111556 71 284 0.0 0.0 0.00 0.00 0.00 1 1016.9
20260902111044 71 284 0.0 0.0 0.00 0.00 0.00 1 1016.9
20260902110532 71 284 0.0 0.0 0.00 0.00 0.00 1 1016.8
20260902110028 71 284 0.0 0.0 0.00 0.00 0.00 1 1016.8
20260902105528 71 284 0.0 0.0 0.00 0.00 0.00 1 1016.8
20260902105011 71 284 0.0 0.0 0.00 0.00 0.00 1 1016.8
20260902104514 71 284 0.0 0.0 0.00 0.00 0.00 1 1016.8
20260902104011 71 284 0.0 0.0 0.00 0.00 0.00 1 1016.8
20260902103454 71 284 0.0 0.0 0.00 0.00 0.00 1 1016.9
20260902102941 70 284 0.0 0.0 0.00 0.00 0.00 1 1016.9
20260902102424 70 284 0.0 0.0 0.00 0.00 0.00 1 1016.9
20260902101919 70 284 0.0 0.0 0.00 0.00 0.00 1 1016.9
20260902101419 70 284 0.0 0.0 0.00 0.00 0.00 1 1017.0
20260902100908 70 284 0.0 0.0 0.00 0.00 0.00 1 1016.9
20260902100407 70 284 0.0 0.0 0.00 0.00 0.00 1 1016.9
20260902095916 70 284 0.0 0.0 0.00 0.00 0.00 1 1016.9
20260902095409 70 284 0.0 0.0 0.00 0.00 0.00 1 1016.9
20260902094407 71 284 0.0 0.0 0.00 0.00 0.00 1 1016.8
20260902093906 71 284 0.0 0.0 0.00 0.00 0.00 1 1016.7
20260902093351 71 284 0.0 0.0 0.00 0.00 0.00 1 1016.7
20260902092849 71 284 0.0 0.0 0.00 0.00 0.00 1 1016.6
20260902091824 71 284 0.0 0.0 0.00 0.00 0.00 1 1016.6
20260902091322 71 284 0.0 0.0 0.00 0.00 0.00 1 1016.6
20260902090809 71 284 0.0 0.0 0.00 0.00 0.00 1 1016.6
20260902085743 71 284 0.0 0.0 0.00 0.00 0.00 1 1016.7
20260902085230 71 284 0.0 0.0 0.00 0.00 0.00 1 1016.7
20260902084717 71 284 0.0 0.0 0.00 0.00 0.00 1 1016.8
20260902084204 71 284 0.0 0.0 0.00 0.00 0.00 1 1016.7
20260902083657 71 284 0.0 0.0 0.00 0.00 0.00 1 1016.7
20260902083200 71 284 0.0 0.0 0.00 0.00 0.00 1 1016.6
20260902082658 71 284 0.0 0.0 0.00 0.00 0.00 1 1016.5
20260902082150 71 284 0.0 0.0 0.00 0.00 0.00 1 1016.5
20260902081142 71 284 0.0 0.0 0.00 0.00 0.00 1 1016.5
20260902075632 71 284 0.0 0.0 0.00 0.00 0.00 1 1016.6
20260902075142 71 284 0.0 0.0 0.00 0.00 0.00 1 1016.6
20260902074652 72 284 0.0 0.0 0.00 0.00 0.00 1 1016.5
20260902073627 72 284 0.0 0.0 0.00 0.00 0.00 1 1016.4
20260902073109 72 284 0.0 0.0 0.00 0.00 0.00 1 1016.4
20260902072553 72 284 0.0 0.0 0.00 0.00 0.00 1 1016.3
20260902071536 72 284 0.0 0.0 0.00 0.00 0.00 1 1016.2
20260902071029 72 284 0.0 0.0 0.00 0.00 0.00 1 1016.1
20260902070534 72 284 0.0 0.0 0.00 0.00 0.00 1 1016.0
20260902065518 72 284 0.0 0.0 0.00 0.00 0.00 1 1015.9
20260902064509 73 284 0.0 0.0 0.00 0.00 0.00 1 1015.9
20260902063956 73 284 0.0 0.0 0.00 0.00 0.00 1 1015.9
20260902063446 73 284 0.0 0.0 0.00 0.00 0.00 1 1015.9
20260902062950 73 284 0.0 0.0 0.00 0.00 0.00 1 1016.0
20260902062432 73 284 0.0 0.0 0.00 0.00 0.00 1 1015.9
20260902061926 74 284 0.0 0.0 0.00 0.00 0.00 1 1015.8
20260902061413 74 284 0.0 0.0 0.00 0.00 0.00 1 1015.8
20260902060911 74 284 0.0 0.0 0.00 0.00 0.00 1 1015.8
20260902055430 75 284 0.0 0.0 0.00 0.00 0.00 1 1015.8
20260902054929 75 284 0.0 0.0 0.00 0.00 0.00 1 1015.8
20260902054410 75 284 0.0 0.0 0.00 0.00 0.00 1 1015.8
20260902053856 75 284 0.0 0.0 0.00 0.00 0.00 1 1015.7
20260902053400 76 284 0.0 0.0 0.00 0.00 0.00 1 1015.6
20260902052905 76 284 0.0 0.0 0.00 0.00 0.00 1 1015.5
20260902051339 76 284 0.0 0.0 0.00 0.00 0.00 1 1015.6
20260902050824 77 284 0.0 0.0 0.00 0.00 0.00 1 1015.7
20260902045815 77 284 0.0 0.0 0.00 0.00 0.00 1 1015.8
20260902045316 77 298 0.0 2.0 0.00 0.00 0.00 1 1016.1
20260902044806 77 355 0.0 0.0 0.00 0.00 0.00 1 1016.2
20260902044254 77 319 0.0 0.0 0.00 0.00 0.00 1 1016.4
20260902043756 78 5 0.0 1.0 0.00 0.00 0.00 1 1016.5
20260902042744 78 293 0.0 0.0 0.00 0.00 0.00 1 1016.6
20260902042253 78 288 0.0 0.0 0.00 0.00 0.00 1 1016.3
20260902041753 79 269 0.0 0.0 0.00 0.00 0.00 1 1016.2
20260902041243 79 269 0.0 0.0 0.00 0.00 0.00 1 1016.0
20260902040733 79 269 0.0 0.0 0.00 0.00 0.00 1 1015.9
20260902040228 80 269 0.0 0.0 0.00 0.00 0.00 1 1015.9
20260902035723 80 269 0.0 0.0 0.00 0.00 0.00 1 1015.9
20260902035214 80 269 0.0 0.0 0.00 0.00 0.00 1 1015.8
20260902034703 80 269 0.0 0.0 0.00 0.00 0.00 1 1015.7
20260902034146 81 269 0.0 0.0 0.00 0.00 0.00 1 1015.5
20260902033644 81 269 0.0 0.0 0.00 0.00 0.00 1 1015.3
20260902033133 81 269 0.0 0.0 0.00 0.00 0.00 1 1015.3
20260902032624 81 269 0.0 0.0 0.00 0.00 0.00 1 1015.2
20260902032115 81 269 0.0 0.0 0.00 0.00 0.00 1 1014.9
20260902031611 82 269 0.0 0.0 0.00 0.00 0.00 1 1014.8
20260902031115 82 269 0.0 0.0 0.00 0.00 0.00 1 1014.7
20260902030618 82 290 0.0 1.0 0.00 0.00 0.00 4 1014.6
20260902030108 82 273 0.0 0.0 0.00 0.00 0.00 9 1014.6
20260902025609 82 273 0.0 0.0 0.00 0.00 0.00 10 1014.5
20260902025115 82 300 0.0 0.0 0.00 0.00 0.00 11 1014.5
20260902024608 83 259 0.0 0.0 0.00 0.00 0.00 11 1014.4
20260902024050 83 247 0.0 0.0 0.00 0.00 0.00 11 1014.3
20260902023544 83 294 0.0 2.0 0.00 0.00 0.00 13 1014.4
20260902022536 83 240 0.0 0.0 0.00 0.00 0.00 13 1014.2
20260902022034 83 294 0.0 2.0 0.00 0.00 0.00 13 1014.3
20260902021524 83 238 0.0 0.0 0.00 0.00 0.00 11 1014.3
20260902020526 83 269 0.0 0.0 0.00 0.00 0.00 8 1014.4
20260902020014 83 219 0.0 0.0 0.00 0.00 0.00 6 1014.4
20260902015519 83 216 0.0 3.0 0.00 0.00 0.00 5 1014.4
20260902015003 83 292 0.0 0.0 0.00 0.00 0.00 3 1014.3
20260902014511 84 187 0.0 0.0 0.00 0.00 0.00 2 1014.3
20260902012941 84 240 0.0 0.0 0.00 0.00 0.00 5 1014.3
20260902012438 84 277 0.0 0.0 0.00 0.00 0.00 6 1014.3
20260902011926 84 238 0.0 0.0 0.00 0.00 0.00 7 1014.3
20260902010922 84 242 0.0 2.0 0.00 0.00 0.00 6 1014.2
20260902005915 84 253 0.0 0.0 0.00 0.00 0.00 5 1014.1
20260902004906 85 279 0.0 1.0 0.00 0.00 0.00 5 1013.9
20260902004350 85 296 0.0 0.0 0.00 0.00 0.00 6 1013.7
20260902003851 85 248 0.0 0.0 0.00 0.00 0.00 5 1013.6
20260902002843 85 273 0.0 0.0 0.00 0.00 0.00 7 1013.1
20260902002338 85 313 0.0 1.0 0.00 0.00 0.00 8 1013.1
20260902001831 86 267 0.0 0.0 0.00 0.00 0.00 8 1013.0
20260902001313 86 244 0.0 2.0 0.00 0.00 0.00 10 1012.9
20260902000803 86 175 0.0 0.0 0.00 0.00 0.00 11 1012.7
20260902000313 87 180 0.0 0.0 0.00 0.00 0.00 14 1012.7
20260901235758 87 178 0.0 0.0 0.00 0.00 0.00 18 1012.6
20260901235245 88 178 0.0 0.0 0.00 0.00 0.00 20 1012.5
20260901233746 89 177 0.0 0.0 0.00 0.00 0.00 29 1012.5
20260901233236 89 178 0.0 0.0 0.00 0.00 0.00 32 1012.5
20260901232724 90 177 0.0 0.0 0.00 0.00 0.00 35 1012.5
20260901232227 90 177 0.0 0.0 0.00 0.00 0.00 35 1012.5
20260901231723 90 178 0.0 0.0 0.00 0.00 0.00 36 1012.5
20260901231220 90 176 0.0 0.0 0.00 0.00 0.00 36 1012.5
20260901230704 91 176 0.0 0.0 0.00 0.00 0.00 37 1012.5
20260901230212 91 176 0.0 0.0 0.00 0.00 0.00 38 1012.5
20260901225706 91 175 0.0 0.0 0.00 0.00 0.00 40 1012.7
20260901224150 91 171 0.0 0.0 0.00 0.00 0.00 43 1012.7
20260901223631 91 171 0.0 0.0 0.00 0.00 0.00 44 1012.7
20260901223118 92 169 0.0 0.0 0.00 0.00 0.00 46 1012.7
20260901222616 92 180 0.0 0.0 0.00 0.00 0.00 47 1012.7
20260901222118 92 180 0.0 0.0 0.00 0.00 0.00 47 1012.6
20260901221619 92 180 0.0 0.0 0.00 0.00 0.00 48 1012.6
20260901221115 92 141 0.0 0.0 0.00 0.00 0.00 48 1012.8
20260901220120 93 123 0.0 0.0 0.00 0.00 0.00 50 1012.9
20260901215053 93 153 0.0 0.0 0.00 0.00 0.00 51 1012.9
20260901213531 94 159 0.0 0.0 0.00 0.00 0.00 51 1012.9
20260901213021 94 156 0.0 0.0 0.00 0.00 0.00 51 1013.0
20260901212508 94 143 0.0 0.0 0.00 0.00 0.00 50 1013.0
20260901211951 94 246 0.0 0.0 0.00 0.00 0.00 50 1013.1
20260901211438 94 161 0.0 3.0 0.00 0.00 0.00 50 1013.1
20260901210941 93 149 0.0 0.0 0.00 0.00 0.00 51 1013.1
20260901205915 93 146 0.0 3.0 0.00 0.00 0.00 51 1013.1
20260901205404 94 9 0.0 1.0 0.00 0.00 0.00 51 1013.3
20260901204859 94 254 0.0 0.0 0.00 0.00 0.00 51 1013.3
20260901204354 94 226 0.0 0.0 0.00 0.00 0.00 51 1013.3
20260901203843 93 242 0.0 1.0 0.00 0.00 0.00 51 1013.3
20260901202351 93 265 0.0 0.0 0.00 0.00 0.00 51 1013.4
20260901201847 93 153 0.0 4.0 0.00 0.00 0.00 50 1013.4
20260901201337 93 155 0.0 1.0 0.00 0.00 0.00 51 1013.5
20260901200818 93 284 0.0 0.0 0.00 0.00 0.00 50 1013.5
20260901200324 93 159 0.0 6.0 0.00 0.00 0.00 50 1013.5
20260901195830 93 298 0.0 6.0 0.00 0.00 0.00 49 1013.6
20260901194823 93 155 0.0 3.0 0.00 0.00 0.00 46 1013.7
20260901194305 93 133 0.0 0.0 0.00 0.00 0.00 46 1013.7
20260901193804 92 302 0.0 0.0 0.00 0.00 0.00 46 1013.7
20260901193312 92 294 0.0 5.0 0.00 0.00 0.00 47 1013.9
20260901192256 92 132 0.0 6.0 0.00 0.00 0.00 47 1014.1
20260901191746 92 5 0.0 3.0 0.00 0.00 0.00 47 1014.1
20260901191230 92 148 0.0 0.0 0.00 0.00 0.00 47 1014.1
20260901190739 92 233 0.0 6.0 0.00 0.00 0.00 47 1014.2
20260901190232 92 217 0.0 5.0 0.00 0.00 0.00 45 1014.3
20260901185716 92 281 0.0 2.0 0.00 0.00 0.00 43 1014.4
20260901185223 92 309 0.0 0.0 0.00 0.00 0.00 42 1014.5
20260901184731 92 254 0.0 0.0 0.00 0.00 0.00 37 1014.5
20260901184212 91 276 0.0 1.0 0.00 0.00 0.00 41 1014.6
20260901183707 91 297 0.0 1.0 0.00 0.00 0.00 41 1014.7
20260901183214 91 191 0.0 2.0 0.00 0.00 0.00 42 1014.7
20260901182715 91 130 0.0 1.0 0.00 0.00 0.00 42 1014.8
20260901181721 91 273 0.0 0.0 0.00 0.00 0.00 44 1014.7
20260901181214 91 30 0.0 0.0 0.00 0.00 0.00 40 1014.7
20260901180720 90 241 0.0 4.0 0.00 0.00 0.00 41 1014.6
20260901175715 90 241 0.0 0.0 0.00 0.00 0.00 35 1014.8
20260901175217 89 205 0.0 7.0 0.00 0.00 0.00 34 1014.7
20260901174719 89 283 0.0 6.0 0.00 0.00 0.00 35 1014.7
20260901174216 89 190 0.0 6.0 0.00 0.00 0.00 36 1014.7
20260901173723 89 261 0.0 0.0 0.00 0.00 0.00 29 1014.7
20260901173232 89 209 0.0 0.0 0.00 0.00 0.00 33 1014.8
20260901172732 89 265 0.0 2.0 0.00 0.00 0.00 28 1014.9
20260901172232 88 271 0.0 6.0 0.00 0.00 0.00 30 1015.0
20260901171733 88 235 0.0 0.0 0.00 0.00 0.00 18 1015.0
20260901171226 87 274 0.0 5.0 0.00 0.00 0.00 1 1015.2
20260901170714 87 229 0.0 0.0 0.00 0.00 0.00 1 1015.2
20260901170156 86 240 0.0 0.0 0.00 0.00 0.00 5 1015.2
20260901165706 86 327 0.0 0.0 0.00 0.00 0.00 8 1015.2
20260901165209 86 275 0.0 3.0 0.00 0.00 0.00 1 1015.1
20260901163631 86 180 0.0 0.0 0.00 0.00 0.00 1 1015.3
20260901162622 85 282 0.0 8.0 0.00 0.00 0.00 1 1015.7
20260901162124 85 232 0.0 0.0 0.00 0.00 0.00 1 1015.8
20260901160602 84 248 0.0 0.0 0.00 0.00 0.00 1 1015.9
20260901160049 85 291 0.0 0.0 0.00 0.00 0.00 1 1015.9
20260901155538 85 272 0.0 0.0 0.00 0.00 0.00 2 1015.9